Location: Canazei
(46.4667°N, 11.7667°E)
Time: 18:31:28
(UTC+00:00)

Envisat - Pass Details

Date: 01 October 2021
Orbit: 764 x 766 km, 98.2° (Epoch: 26 October)

Event Time Altitude Azimuth Distance (km) Brightness Sun altitude
Rises 03:33:30 0° 23° (NNE) 3,242 6.8 -17.6°
Reaches altitude 10° 03:36:08 10° 35° (NE) 2,311 6.2 -17.1°
Maximum altitude 03:40:30 28° 94° (E) 1,400 5.1 -16.4°
Drops below altitude 10° 03:44:50 10° 153° (SSE) 2,295 5.6 -15.7°
Sets 03:47:26 0° 165° (SSE) 3,216 6.3 -15.2°
